Location: Ottawa
(45.4170°N, 75.7000°W)
Time: 05:40:57
(UTC-04:00)

Envisat - Pass Details

Date: 27 April 2019
Orbit: 764 x 766 km, 98.2° (Epoch: 19 May)

Event Time Altitude Azimuth Distance (km) Brightness Sun altitude
Rises 20:42:35 0° 206° (SSW) 3,220 6.2 -7.0°
Reaches altitude 10° 20:45:30 10° 223° (SW) 2,299 5.7 -7.4°
Maximum altitude 20:49:07 20° 269° (W) 1,737 5.8 -8.0°
Drops below altitude 10° 20:52:46 10° 315° (NW) 2,311 7.0 -8.5°
Sets 20:55:43 0° 333° (NNW) 3,242 7.3 -9.0°
